Location: Camaret
(48.2753°N, 4.5961°W)
Time: 04:36:10
(UTC+00:00)

NOSS 3-4 (A) - Pass Details

Date: 29 October 2020
Orbit: 882 x 1330 km, 63.4° (Epoch: 28 November)

Event Time Altitude Azimuth Distance (km) Brightness Sun altitude
Rises 17:50:50 0° 315° (NW) 3,711 7.1 -8.4°
Reaches altitude 10° 17:53:36 10° 324° (NW) 2,823 6.3 -8.8°
Maximum altitude 17:59:41 35° 30° (NNE) 1,699 4.5 -9.8°
Enters shadow 18:05:39 13° 91° (E) 2,894 5.3 -10.8°
